STARLINK-4386, 53649

Orbit data source: Space-Track

STARLINK-4386, 53649 is a payload satellite owned by SpaceX/Seattle (US) in SSO that was launched on Wed, 31 Aug 2022 UTC via an FALCON 9 launch vehicle from the Air Force Western Test Range (AFWTR). Payload-class satellites include a variety of spacecraft equipped with specific instruments for various scientific and technological missions. These include communications satellites like Starlink; space stations such as the ISS; scientific satellites like the Hubble; Earth observation satellites from companies like Planet Labs, Umbra, and HawkEye 360; GPS; miniature CubeSats for education and research; and military/defense satellites.

Loading next visibility...
Identifier
53649, 2022-105B
Orbit
SSO
Country
Flag of USUS
Related business
Manufacturer
SpaceX/Seattle
Mission
Partially operational Commercial Communications
Bus & Motor
STARLINK, Unknown motor
Mass
300 kg wet, ~290 kg dry
Launch date (UTC)
2022-08-31 (4 years ago)
Launch vehicle
FALCON 9
Launch site
Air Force Western Test Range (AFWTR)
Object type
Payload
Rocket body
Debris
Shape & HBR
Box + 1 Pan, 10.1 m
Radar Cross Section
13.562 m², Large (>1 m²)

Expand to show TLE details & history
Last TLE update: 2 days ago

TLE from 2 days ago
0 STARLINK-4386
1 53649U 22105B   26171.41668980  .00186343  00000-0  35248-2 0  9995
2 53649  97.6025  55.3819 0001831  81.9226 272.3031 15.47699239  5794
Epoch: 2026-06-20T10:00Z
TLE epoch observation values (Epoch: 2026-06-20T10:00:01.998Z)
Latitude
-5.90547°
Longitude
-2.4714°
Altitude
427.486 km
Speed
7.655 km/s
True Right ascension
03h 44m 40s
True Declination
-5° 52' 07"
Sunlit
Object was in daylight at epoch
Visualization orbit readout
Latitude
Unknown
Longitude
Unknown
Altitude
Unknown
Speed
Unknown
Apparent Right ascension
Unknown
Apparent Declination
Unknown
Sunlit
N/A
Visualization observer readout
Local Sidereal Time
21:27:24
Azimuth
Unknown
Elevation
Unknown
Doppler factor
Unknown
Orbital elements
Apogee altitude
421.641 km
Perigee altitude
419.151 km
Semi-major axis
6,798.533 km
Eccentricity
0.00018
Inclination
97.6025°
RAAN
55.3819°
Arg. of periapsis
81.9226°
True anomaly
272.28214°
Mean anomaly
272.3031°
Eccentric anomaly
272.29262°
Mean motion
3.87187 °/min
Orbital period
92.98 mins
BSTAR
0.0035248
Loading maneuver chart data...
Computing Atmospheric mass density...
Loading historical data...
Loading historical data...
Loading historical data...
Loading historical data...
Loading historical data...
Loading historical data...
Loading historical data...

Documentation

Showing up to 5 results
|